Location: St. Louis
(38.6270°N, 90.1994°W)
Time: 01:59:07
(UTC-06:00)

Courier 1B Rocket - Pass Details

Date: 01 December 2021
Orbit: 920 x 1202 km, 28.2° (Epoch: 16 January)

Event Time Altitude Azimuth Distance (km) Brightness Sun altitude
Rises 05:19:23 0° 255° (WSW) 3,607 - -19.2°
Exits shadow 05:23:32 - 229° (SW) 2,757 7.0 -18.4°
Reaches altitude 10° 05:23:55 10° 226° (SW) 2,712 7.0 -18.3°
Maximum altitude 05:26:15 12° 205° (SSW) 2,595 7.1 -17.9°
Drops below altitude 10° 05:28:38 10° 184° (S) 2,775 7.5 -17.4°
Sets 05:33:26 0° 155° (SSE) 3,800 8.7 -16.5°
